LIZZIESAT-2 (62383 NORAD) Tracking and Keplerian Element Data

This shows tracking and keplerian element data for the satellite.

Feedback or suggestion? Click here.




ElementValue
Catalog62383
NameLIZZIESAT-2
Epoch Orbit671
Epoch Day33.66065171
Epoch Year2025
RAAN128.1443
Inclination44.9981
Eccentricity0.0003266
Argument of Perigee249.488
Mean Anonmoly110.565
Mean Motion15.19844169
Decay Rate0.00013191
L11 62383U 24247G 25033.66065171 .00013191 00000+0 61585-3 0 9998
L22 62383 44.9981 128.1443 0003266 249.4880 110.5650 15.19844169 6714



Live tracking and technical data element details for LIZZIESAT-2 (NORAD 62383). LIZZIESAT-2 can be tracked NOW for your location showing map with azimuth and elevation plus other details from your city location.







IsCatalogInMostPopularTable: catalog: 62383, numindb: 10
Update: records affected: 1



GetName: 62383 LIZZIESAT-2

Hit Count: updated at: Sun, 18 May 2025 23:07:56 GMT